Location: Zihuatanejo
(17.6330°N, 101.5500°W)
Time: 15:54:48
(UTC-05:00)

Daily predictions for brighter satellites

Satellite Brightness Start Highest point End
(mag) Time Altitude Azimuth Time Altitude Azimuth Time Altitude Azimuth
ASC 2 Rocket 4.1 20:15:01 10° WSW 20:20:24 89° NNW 20:28:40 10° ENE
GPS 2-15 Rocket1 4.2 20:18:52 10° SW 20:23:14 31° SSE 20:27:36 10° E
MOS 1 4.3 20:20:37 10° SSE 20:26:15 66° ENE 20:31:52 10° N
Thor Agena Rocket 4.5 20:21:57 10° NE 20:26:24 27° E 20:30:50 10° SSE
Cosmos 1805 Rocket 4.5 20:27:39 10° NNE 20:31:21 27° E 20:35:01 10° SE
Cosmos 1340 2.6 20:27:44 10° S 20:31:30 75° E 20:35:16 10° N
KM-V1 3.3 20:33:59 10° WSW 20:37:35 87° SSE 20:39:49 10° ENE
EO 1 Del DPAF 3.9 20:34:11 10° N 20:37:56 60° WNW 20:41:41 10° SSW
XTE 4.3 20:37:42 10° NW 20:39:12 18° N 20:40:43 10° NE
ATLAS 3B CENTAUR R/B 3.9 20:19:00 10° WNW 20:39:19 83° NNE 20:46:02 13° ESE
Meteor 2-21 4.4 20:34:25 10° S 20:40:27 65° E 20:46:31 10° NNE
Hubble Space Telescope 1.2 20:40:39 10° SW 20:44:34 42° SSE 20:48:00 13° E
Cosmos 2154 Rocket 4.0 20:38:39 10° S 20:44:53 68° E 20:51:05 10° N
NOSS 0 Rocket 3.9 20:40:56 10° SSW 20:47:06 89° ESE 20:53:17 10° NNE
IRAS Rocket 4.4 20:41:42 10° S 20:47:12 80° WSW 20:52:41 10° NNW
H-2A R/B 2.8 20:43:42 10° S 20:47:23 77° W 20:51:07 10° NNW
Meteor 2-2 Rocket 4.3 20:42:12 10° S 20:47:56 76° E 20:53:49 10° N
Stardust Del rocket 3.5 20:50:25 10° W 20:53:02 50° N 20:57:03 12° ENE
Cosmos 494 Rocket 3.9 20:47:49 10° N 20:53:02 73° ENE 20:58:16 10° SSE
USA 267 4.5 20:54:29 16° ESE 20:56:19 17° ESE 21:00:21 10° SSE
In-Cosmos 22 Rocket 4.0 20:54:54 10° N 21:00:14 71° E 21:05:30 10° SSE
Cosmos 1151 Rocket 3.7 20:56:36 10° SSE 21:00:21 31° E 21:04:07 10° NNE
Cosmos 1371 Rocket 4.2 20:59:13 10° S 21:04:14 47° ESE 21:09:19 10° NNE
IUS-9 SRM-1 2.2 21:02:31 10° SW 21:04:38 49° SSE 21:07:58 18° ENE
Cosmos 962 Rocket 4.4 21:00:25 10° S 21:06:28 71° E 21:12:33 10° N
Centaur D-1AR AC-48 4.3 21:00:20 10° W 21:09:35 21° SW 21:13:30 10° S
Cosmos 1295 Rocket 4.4 21:04:12 10° S 21:10:29 71° E 21:16:47 10° N
Envisat 3.1 21:06:41 14° SSE 21:10:54 53° ENE 21:15:49 10° N
SL-16 R/B 2.7 21:05:55 10° SSE 21:11:01 36° ESE 21:16:07 10° NE
Cosmos 2341 Rocket 4.0 21:05:02 10° S 21:11:24 76° E 21:17:43 10° N
Cosmos 1666 Rocket 3.6 21:08:05 10° N 21:12:26 55° E 21:15:19 20° SSE
Sich 1 2.8 21:13:02 10° N 21:17:17 74° E 21:20:25 18° SSE
Cosmos 2366 rocket 4.4 21:18:02 21° SE 21:21:35 38° E 21:27:15 10° NNE
Cosmos 2344 3.8 21:13:53 10° S 21:21:40 43° ESE 21:28:43 10° NE
Cosmos 2056 Rocket 3.5 21:20:05 10° S 21:25:24 62° ESE 21:30:45 10° NNE
SWIFT 3.5 21:25:31 10° SW 21:28:42 28° S 21:28:42 28° S
SL-8 Rocket 3.9 21:23:08 10° S 21:29:23 67° E 21:35:36 10° NNE
ERS-2 2.2 21:30:02 57° ENE 21:30:02 57° ENE 21:33:26 10° N
SJ-6B 2.9 21:27:45 24° S 21:30:08 76° WSW 21:34:09 10° NNW
Cosmos 2251 Rocket 3.5 21:26:00 10° NNW 21:31:21 87° WSW 21:34:33 25° S
GPS 2-17 Rocket1 3.1 21:28:13 10° WSW 21:33:00 71° SSE 21:33:57 54° ESE
YAOGAN 6 3.6 21:35:18 33° NNE 21:35:18 33° NNE 21:37:35 10° N
Delta 128 4.2 21:29:34 10° WNW 21:34:44 63° NNE 21:36:35 42° E
Aurora 2 Rocket 3.8 21:28:08 10° WSW 21:37:35 89° SSE 21:41:09 33° ENE
Cosmos 1869 4.3 21:39:39 34° NNE 21:39:39 34° NNE 21:42:04 10° NNE
Cosmos 1455 4.3 21:36:05 10° SW 21:39:21 27° W 21:42:39 10° NNW
Cosmos 2098 Rocket 3.6 21:42:26 48° ENE 21:42:26 48° ENE 21:45:58 10° NNE
Cosmos 1624 Rocket 4.0 21:36:51 10° SSW 21:42:02 79° WNW 21:47:14 10° N
Cosmos 1633 Rocket 3.2 21:38:13 10° N 21:42:32 71° W 21:44:05 39° SSW
Cosmos 1515 Rocket 4.1 21:38:18 10° SSW 21:42:40 59° W 21:47:04 10° N
Cosmos 1939 Rocket 3.6 21:46:00 40° NNE 21:46:00 40° NNE 21:48:37 10° N
Meteor 2-3 Rocket 3.6 21:40:49 10° N 21:46:28 82° E 21:48:22 44° SSE
Palapa 6 Rocket 4.1 21:43:42 10° SW 21:47:36 35° SSW 21:47:36 35° SSW
GPS 2-05 Rocket1 4.4 21:46:45 10° WNW 21:48:58 31° WSW 21:48:58 31° WSW
Spot 2 Rocket 4.2 21:54:45 40° NE 21:54:45 40° NE 21:58:23 10° N
OAO 3 Rocket 3.8 21:50:41 10° WSW 21:55:19 51° NNW 21:56:17 43° N
Cosmos 1844 Rocket 3.5 21:52:41 10° NNW 21:58:05 47° WSW 22:00:49 27° SSW
Cosmos 864 Rocket 4.3 21:57:20 38° S 21:59:53 86° E 22:06:01 10° N
ATLAS 2AS CENTAUR R/B 2.8 21:53:40 10° NNW 22:00:59 55° ENE 22:01:23 54° ENE
GPS 2-15 Rocket1 4.0 22:02:28 10° WSW 22:05:59 46° WSW 22:05:59 46° WSW
Cosmos 1844 4.5 22:06:14 10° NNW 22:11:43 48° WSW 22:13:12 39° SW
Delta 202 4.0 22:14:43 10° W 22:22:35 81° NW 22:22:35 81° NW
Resurs 01 Rocket 3.3 22:26:38 31° NW 22:26:38 31° NW 22:29:20 10° NNW
Haruka 4.3 22:21:14 10° NW 22:24:12 30° NW 22:24:12 30° NW
Hubble Space Telescope 3.2 22:21:50 10° W 22:23:24 21° W 22:23:24 21° W
Cosmos 2278 Rocket 3.0 22:20:38 10° NNW 22:24:26 44° N 22:24:26 44° N
USA 267 4.2 22:42:01 38° SW 22:42:01 38° SW 22:45:49 10° SW
ATLAS 2A CENTAUR R/B 4.2 23:21:17 10° W 23:37:34 51° NNW 23:37:34 51° NNW
